Starlink 4188

operational
NORAD ID: 52843 Int'l Des: 2022-062 Owner: SPXS Country: US Constellation: starlink
LEOCIRCULAR

About Starlink 4188

Description loading...

Live Position

Loading 3D Globe...

Upcoming Passes

Altitude History

Altitude vs Time

uPlot chart will show altitude changes over time

Two-Line Element Set

1 52843U 22062P 25303.16148008 -.00000097 00000-0 12000-4 0 9999
2 52843 53.2170 260.0839 0001450 93.7285 266.3873 15.08846635186088
Epoch: Oct 30, 2025 • Age: 24 hours

Current Status

Altitude 542.4 km
Velocity 7.59 km/s
Sub-Earth Point -8.46°S, 154.45°E
Launch Date Jun 17, 2022
Age 3.3 years
Type internet

Technical Details

Classification Payload
Mass 297.00 kg
Dry Mass 275.00 kg
Total Mass 297.00 kg
Length 0.20 m
Diameter 2.80 m
Span 9.00 m
Shape Box + pan
Manufacturer SPXS
Bus Type Starlink
Phase Status In Orbit
Owner/State SPXS/US

Large Constellations

Loading constellations...